UAE25K OMDB-VAAH

Flight info

Callsign UAE25K
Flight time 2h 11m
Altitude 41000
Route IVURO1F IVURO M677 LALDO B505 NADSO B524 ALPOR M504 TELEM N893 VASLA VASLA1A
Aircraft A359/H-SDE2E3GHIJ3J4J5LM1ORWXY/LB1D1

Departure

Time 2026-04-30 11:36
Airport Dubai International Airport (OMDB)

Arrival

Time 2026-04-30 13:48
Airport Sardar Vallabh Patel International Airport (VAAH)
Time Latitude Longitude Altitude Speed Heading
2026-04-30 10:54 25.24874 55.35890 28 ft 0 kts 28°
2026-04-30 11:22 25.24873 55.35889 28 ft 2 kts 28°
2026-04-30 11:23 25.24856 55.35879 28 ft 3 kts 28°
2026-04-30 11:23 25.24841 55.35870 27 ft 3 kts 28°
2026-04-30 11:23 25.24811 55.35847 25 ft 2 kts 42°
2026-04-30 11:24 25.24801 55.35837 28 ft 2 kts 43°
2026-04-30 11:24 25.24788 55.35823 26 ft 3 kts 52°
2026-04-30 11:24 25.24778 55.35805 26 ft 3 kts 72°
2026-04-30 11:25 25.24777 55.35766 27 ft 3 kts 103°
2026-04-30 11:25 25.24781 55.35751 26 ft 0 kts 115°
2026-04-30 11:27 25.24781 55.35752 26 ft 1 kts 116°
2026-04-30 11:27 25.24755 55.35801 28 ft 11 kts 121°
2026-04-30 11:28 25.24691 55.35913 28 ft 21 kts 122°
2026-04-30 11:28 25.24617 55.36055 28 ft 22 kts 116°
2026-04-30 11:28 25.24540 55.36191 28 ft 21 kts 124°
2026-04-30 11:29 25.24460 55.36329 28 ft 22 kts 122°
2026-04-30 11:29 25.24386 55.36476 28 ft 22 kts 111°
2026-04-30 11:29 25.24492 55.36773 28 ft 24 kts 35°
2026-04-30 11:30 25.24680 55.36898 28 ft 9 kts 35°
2026-04-30 11:30 25.24687 55.36972 28 ft 15 kts 116°
2026-04-30 11:30 25.24625 55.37078 28 ft 19 kts 122°
2026-04-30 11:31 25.24541 55.37227 28 ft 26 kts 121°
2026-04-30 11:31 25.24444 55.37403 28 ft 28 kts 121°
2026-04-30 11:31 25.24341 55.37589 28 ft 29 kts 122°
2026-04-30 11:31 25.24234 55.37782 28 ft 30 kts 122°
2026-04-30 11:32 25.24122 55.37982 28 ft 31 kts 122°
2026-04-30 11:32 25.24006 55.38188 28 ft 32 kts 123°
2026-04-30 11:32 25.23891 55.38395 28 ft 24 kts 120°
2026-04-30 11:33 25.23862 55.38639 28 ft 18 kts 121°
2026-04-30 11:33 25.23770 55.38805 28 ft 29 kts 121°
2026-04-30 11:33 25.23663 55.38999 28 ft 30 kts 122°
2026-04-30 11:33 25.23551 55.39200 28 ft 28 kts 121°
2026-04-30 11:34 25.23461 55.39364 28 ft 15 kts 114°
2026-04-30 11:34 25.23490 55.39440 28 ft 12 kts 37°
2026-04-30 11:34 25.23555 55.39487 28 ft 6 kts 32°
2026-04-30 11:34 25.23578 55.39497 28 ft 1 kts 358°
2026-04-30 11:35 25.23595 55.39471 28 ft 8 kts 301°
2026-04-30 11:35 25.23597 55.39467 28 ft 0 kts 301°
2026-04-30 11:35 25.23612 55.39441 28 ft 19 kts 302°
2026-04-30 11:36 25.23800 55.39104 28 ft 87 kts 301°
2026-04-30 11:36 25.24227 55.38339 29 ft 149 kts 301°
2026-04-30 11:36 25.24846 55.37219 314 ft 179 kts 300°
2026-04-30 11:36 25.25456 55.36075 1145 ft 165 kts 301°
2026-04-30 11:37 25.26057 55.35051 1745 ft 167 kts 306°
2026-04-30 11:37 25.26744 55.33951 2052 ft 181 kts 304°
2026-04-30 11:37 25.27491 55.32748 2328 ft 195 kts 304°
2026-04-30 11:37 25.28280 55.31469 2741 ft 209 kts 304°
2026-04-30 11:38 25.29229 55.30203 3281 ft 217 kts 319°
2026-04-30 11:38 25.30599 55.29489 3867 ft 225 kts 347°
2026-04-30 11:38 25.32188 55.29397 4409 ft 232 kts 357°
2026-04-30 11:38 25.33800 55.29456 4927 ft 238 kts 358°
2026-04-30 11:39 25.35473 55.29528 5508 ft 242 kts 358°
2026-04-30 11:39 25.37162 55.29595 6105 ft 244 kts 358°
2026-04-30 11:39 25.38875 55.29744 6601 ft 250 kts
2026-04-30 11:39 25.40464 55.30585 7028 ft 264 kts 37°
2026-04-30 11:40 25.41767 55.32118 7260 ft 283 kts 48°
2026-04-30 11:40 25.43018 55.33872 7572 ft 295 kts 49°
2026-04-30 11:40 25.44293 55.35675 8057 ft 300 kts 49°
2026-04-30 11:40 25.45583 55.37481 8527 ft 305 kts 49°
2026-04-30 11:41 25.46921 55.39332 9012 ft 311 kts 49°
2026-04-30 11:41 25.48288 55.41210 9538 ft 315 kts 48°
2026-04-30 11:41 25.49660 55.43122 10025 ft 319 kts 50°
2026-04-30 11:41 25.51037 55.45105 10338 ft 331 kts 50°
2026-04-30 11:42 25.52298 55.47303 10535 ft 347 kts 65°
2026-04-30 11:42 25.52822 55.49950 10708 ft 360 kts 90°
2026-04-30 11:42 25.52343 55.52682 10883 ft 367 kts 115°
2026-04-30 11:42 25.51059 55.55156 11107 ft 374 kts 127°
2026-04-30 11:43 25.49582 55.57558 11439 ft 380 kts 127°
2026-04-30 11:43 25.48119 55.59969 11829 ft 383 kts 127°
2026-04-30 11:43 25.46647 55.62446 12245 ft 386 kts 126°
2026-04-30 11:43 25.45181 55.64955 12665 ft 389 kts 126°
2026-04-30 11:44 25.43723 55.67489 13075 ft 391 kts 124°
2026-04-30 11:44 25.42512 55.70209 13489 ft 398 kts 111°
2026-04-30 11:44 25.41767 55.73180 13880 ft 401 kts 105°
2026-04-30 11:44 25.41144 55.76153 14218 ft 404 kts 104°
2026-04-30 11:45 25.40519 55.79199 14557 ft 407 kts 104°
2026-04-30 11:45 25.39888 55.82259 14917 ft 409 kts 105°
2026-04-30 11:45 25.39245 55.85336 15262 ft 412 kts 105°
2026-04-30 11:45 25.38587 55.88439 15620 ft 415 kts 105°
2026-04-30 11:46 25.37924 55.91553 15979 ft 417 kts 105°
2026-04-30 11:46 25.37256 55.94686 16355 ft 419 kts 105°
2026-04-30 11:46 25.36586 55.97840 16704 ft 422 kts 105°
2026-04-30 11:46 25.35914 56.00974 17044 ft 425 kts 105°
2026-04-30 11:47 25.35228 56.04163 17413 ft 427 kts 105°
2026-04-30 11:47 25.34536 56.07367 17770 ft 430 kts 105°
2026-04-30 11:47 25.33839 56.10595 18114 ft 432 kts 105°
2026-04-30 11:47 25.33143 56.13842 18390 ft 436 kts 105°
2026-04-30 11:48 25.32590 56.17153 18680 ft 440 kts 100°
2026-04-30 11:48 25.32210 56.20523 18990 ft 443 kts 97°
2026-04-30 11:48 25.31929 56.23922 19281 ft 446 kts 96°
2026-04-30 11:48 25.31694 56.27352 19577 ft 448 kts 96°
2026-04-30 11:49 25.31463 56.30795 19861 ft 451 kts 96°
2026-04-30 11:49 25.31220 56.34215 20158 ft 453 kts 96°
2026-04-30 11:49 25.30955 56.37703 20432 ft 456 kts 96°
2026-04-30 11:49 25.30684 56.41204 20696 ft 459 kts 96°
2026-04-30 11:50 25.30505 56.44738 20970 ft 462 kts 94°
2026-04-30 11:50 25.30404 56.48299 21241 ft 465 kts 92°
2026-04-30 11:50 25.30335 56.51883 21498 ft 467 kts 92°
2026-04-30 11:50 25.30275 56.55483 21773 ft 469 kts 92°
2026-04-30 11:51 25.29970 56.59068 22020 ft 469 kts 102°
2026-04-30 11:51 25.29142 56.62556 22282 ft 468 kts 111°
2026-04-30 11:51 25.28052 56.65946 22549 ft 468 kts 114°
2026-04-30 11:51 25.26838 56.69295 22811 ft 470 kts 116°
2026-04-30 11:52 25.25563 56.72618 23077 ft 471 kts 117°
2026-04-30 11:52 25.24259 56.75952 23312 ft 473 kts 117°
2026-04-30 11:52 25.22970 56.79246 23537 ft 475 kts 117°
2026-04-30 11:52 25.21666 56.82604 23774 ft 476 kts 117°
2026-04-30 11:53 25.20369 56.85964 24003 ft 476 kts 116°
2026-04-30 11:53 25.19073 56.89347 24222 ft 477 kts 116°
2026-04-30 11:53 25.17782 56.92735 24453 ft 479 kts 116°
2026-04-30 11:53 25.16495 56.96130 24676 ft 480 kts 116°
2026-04-30 11:54 25.15206 56.99533 24887 ft 481 kts 116°
2026-04-30 11:54 25.14345 57.01800 25029 ft 482 kts 116°
2026-04-30 11:54 25.13040 57.05228 25201 ft 484 kts 116°
2026-04-30 11:54 25.11303 57.09766 25454 ft 486 kts 116°
2026-04-30 11:55 25.09983 57.13206 25652 ft 487 kts 116°
2026-04-30 11:55 25.09087 57.15543 25784 ft 488 kts 116°
2026-04-30 11:55 25.07780 57.18958 25986 ft 490 kts 116°
2026-04-30 11:55 25.06450 57.22433 26191 ft 491 kts 116°
2026-04-30 11:56 25.05117 57.25906 26388 ft 492 kts 116°
2026-04-30 11:56 25.03771 57.29407 26608 ft 494 kts 116°
2026-04-30 11:56 25.02429 57.32895 26811 ft 495 kts 116°
2026-04-30 11:56 25.01079 57.36402 27028 ft 496 kts 116°
2026-04-30 11:57 24.99748 57.39864 27241 ft 497 kts 116°
2026-04-30 11:57 24.98396 57.43384 27454 ft 498 kts 116°
2026-04-30 11:57 24.97040 57.46908 27672 ft 499 kts 116°
2026-04-30 11:57 24.95677 57.50439 27892 ft 501 kts 116°
2026-04-30 11:58 24.94311 57.53970 28103 ft 502 kts 116°
2026-04-30 11:58 24.92938 57.57514 28326 ft 503 kts 116°
2026-04-30 11:58 24.91561 57.61076 28533 ft 504 kts 116°
2026-04-30 11:58 24.90178 57.64646 28743 ft 506 kts 116°
2026-04-30 11:59 24.88814 57.68165 28956 ft 507 kts 116°
2026-04-30 11:59 24.87420 57.71759 29167 ft 508 kts 116°
2026-04-30 11:59 24.86027 57.75348 29365 ft 510 kts 116°
2026-04-30 11:59 24.84631 57.78946 29559 ft 511 kts 116°
2026-04-30 12:00 24.83387 57.82633 29777 ft 516 kts 110°
2026-04-30 12:00 24.82455 57.86458 29954 ft 519 kts 107°
2026-04-30 12:00 24.81608 57.90334 30131 ft 521 kts 105°
2026-04-30 12:00 24.80808 57.94221 30300 ft 522 kts 105°
2026-04-30 12:01 24.80027 57.98144 30493 ft 524 kts 104°
2026-04-30 12:01 24.79265 58.02011 30671 ft 525 kts 104°
2026-04-30 12:01 24.78484 58.05953 30863 ft 526 kts 104°
2026-04-30 12:01 24.77696 58.09901 31048 ft 528 kts 105°
2026-04-30 12:02 24.76900 58.13848 31236 ft 529 kts 105°
2026-04-30 12:02 24.76094 58.17802 31420 ft 530 kts 105°
2026-04-30 12:02 24.75282 58.21767 31589 ft 531 kts 105°
2026-04-30 12:02 24.74475 58.25690 31756 ft 533 kts 105°
2026-04-30 12:03 24.73645 58.29721 31922 ft 534 kts 105°
2026-04-30 12:03 24.72007 58.37673 32266 ft 536 kts 105°
2026-04-30 12:03 24.71180 58.41681 32423 ft 537 kts 105°
2026-04-30 12:04 24.70348 58.45698 32581 ft 538 kts 105°
2026-04-30 12:04 24.69515 58.49724 32752 ft 539 kts 105°
2026-04-30 12:04 24.68681 58.53744 32903 ft 540 kts 105°
2026-04-30 12:04 24.67855 58.57723 33073 ft 541 kts 105°
2026-04-30 12:05 24.67017 58.61757 33306 ft 540 kts 105°
2026-04-30 12:05 24.66179 58.65782 33556 ft 539 kts 105°
2026-04-30 12:05 24.65341 58.69805 33801 ft 538 kts 105°
2026-04-30 12:05 24.64505 58.73819 34000 ft 538 kts 105°
2026-04-30 12:06 24.63668 58.77825 34225 ft 537 kts 105°
2026-04-30 12:06 24.62833 58.81819 34466 ft 536 kts 105°
2026-04-30 12:06 24.61996 58.85817 34696 ft 536 kts 105°
2026-04-30 12:06 24.61163 58.89800 34929 ft 535 kts 105°
2026-04-30 12:07 24.60326 58.93787 35181 ft 534 kts 105°
2026-04-30 12:07 24.59500 58.97718 35427 ft 534 kts 105°
2026-04-30 12:07 24.58663 59.01692 35672 ft 533 kts 105°
2026-04-30 12:07 24.57827 59.05662 35914 ft 533 kts 105°
2026-04-30 12:08 24.56989 59.09631 36161 ft 532 kts 105°
2026-04-30 12:08 24.56149 59.13603 36423 ft 531 kts 105°
2026-04-30 12:08 24.55312 59.17550 36677 ft 531 kts 105°
2026-04-30 12:08 24.54475 59.21493 36929 ft 530 kts 106°
2026-04-30 12:09 24.53640 59.25432 37190 ft 529 kts 106°
2026-04-30 12:09 24.52801 59.29371 37443 ft 528 kts 106°
2026-04-30 12:09 24.51962 59.33304 37697 ft 528 kts 106°
2026-04-30 12:09 24.51136 59.37168 37944 ft 527 kts 106°
2026-04-30 12:10 24.50299 59.41087 38204 ft 526 kts 106°
2026-04-30 12:10 24.49461 59.45001 38424 ft 526 kts 106°
2026-04-30 12:10 24.48623 59.48910 38639 ft 525 kts 106°
2026-04-30 12:10 24.47784 59.52813 38844 ft 524 kts 106°
2026-04-30 12:11 24.46949 59.56703 39044 ft 523 kts 106°
2026-04-30 12:11 24.46122 59.60542 39248 ft 522 kts 106°
2026-04-30 12:11 24.45283 59.64438 39443 ft 521 kts 106°
2026-04-30 12:11 24.44449 59.68304 39636 ft 520 kts 106°
2026-04-30 12:12 24.43615 59.72165 39822 ft 520 kts 106°
2026-04-30 12:12 24.42777 59.76035 40002 ft 519 kts 106°
2026-04-30 12:12 24.41945 59.79878 40185 ft 518 kts 106°
2026-04-30 12:12 24.41108 59.83736 40361 ft 517 kts 106°
2026-04-30 12:13 24.40281 59.87540 40545 ft 517 kts 106°
2026-04-30 12:13 24.39448 59.91370 40693 ft 516 kts 106°
2026-04-30 12:13 24.38614 59.95199 40743 ft 517 kts 106°
2026-04-30 12:14 24.36941 60.02867 40743 ft 516 kts 106°
2026-04-30 12:14 24.35270 60.10506 40743 ft 515 kts 106°
2026-04-30 12:15 24.33590 60.18171 40743 ft 515 kts 106°
2026-04-30 12:15 24.31923 60.25759 40741 ft 515 kts 106°
2026-04-30 12:16 24.30238 60.33408 40739 ft 515 kts 106°
2026-04-30 12:16 24.28549 60.41056 40742 ft 515 kts 106°
2026-04-30 12:17 24.26022 60.52467 40736 ft 515 kts 106°
2026-04-30 12:17 24.24326 60.60099 40739 ft 515 kts 106°
2026-04-30 12:18 24.22628 60.67722 40735 ft 515 kts 106°
2026-04-30 12:18 24.20937 60.75298 40736 ft 515 kts 106°
2026-04-30 12:19 24.19235 60.82914 40732 ft 515 kts 106°
2026-04-30 12:19 24.17528 60.90542 40733 ft 515 kts 106°
2026-04-30 12:20 24.15820 60.98160 40732 ft 515 kts 106°
2026-04-30 12:20 24.14107 61.05776 40734 ft 514 kts 106°
2026-04-30 12:21 24.12406 61.13321 40735 ft 514 kts 106°
2026-04-30 12:21 24.10686 61.20929 40735 ft 514 kts 106°
2026-04-30 12:22 24.08963 61.28535 40734 ft 514 kts 106°
2026-04-30 12:22 24.07715 61.36246 40737 ft 517 kts 97°
2026-04-30 12:23 24.07159 61.44108 40732 ft 518 kts 95°
2026-04-30 12:23 24.06732 61.51978 40728 ft 518 kts 95°
2026-04-30 12:24 24.06297 61.59807 40728 ft 518 kts 95°
2026-04-30 12:24 24.05831 61.67675 40731 ft 518 kts 95°
2026-04-30 12:25 24.05351 61.75551 40729 ft 517 kts 95°
2026-04-30 12:25 24.04870 61.83358 40730 ft 517 kts 95°
2026-04-30 12:26 24.04382 61.91209 40728 ft 517 kts 95°
2026-04-30 12:26 24.03891 61.99063 40728 ft 517 kts 95°
2026-04-30 12:27 24.03397 62.06921 40728 ft 517 kts 95°
2026-04-30 12:27 24.02901 62.14718 40724 ft 516 kts 95°
2026-04-30 12:28 24.02397 62.22573 40723 ft 516 kts 95°
2026-04-30 12:28 24.01894 62.30370 40725 ft 516 kts 95°
2026-04-30 12:29 24.01384 62.38208 40724 ft 516 kts 95°
2026-04-30 12:29 24.00870 62.46035 40727 ft 516 kts 95°
2026-04-30 12:30 24.00353 62.53862 40722 ft 516 kts 95°
2026-04-30 12:30 23.99831 62.61689 40723 ft 515 kts 95°
2026-04-30 12:31 23.99306 62.69511 40719 ft 515 kts 95°
2026-04-30 12:31 23.98777 62.77334 40721 ft 517 kts 95°
2026-04-30 12:32 23.98243 62.85171 40717 ft 516 kts 95°
2026-04-30 12:32 23.97710 62.92936 40718 ft 515 kts 95°
2026-04-30 12:33 23.97171 63.00737 40717 ft 515 kts 95°
2026-04-30 12:33 23.96627 63.08550 40716 ft 514 kts 95°
2026-04-30 12:34 23.96079 63.16354 40715 ft 514 kts 95°
2026-04-30 12:34 23.95526 63.24159 40714 ft 514 kts 95°
2026-04-30 12:35 23.94974 63.31913 40714 ft 514 kts 95°
2026-04-30 12:35 23.94414 63.39718 40715 ft 514 kts 95°
2026-04-30 12:36 23.93850 63.47523 40716 ft 514 kts 95°
2026-04-30 12:36 23.93291 63.55319 40717 ft 514 kts 93°
2026-04-30 12:37 23.92823 63.63063 40714 ft 514 kts 95°
2026-04-30 12:37 23.92209 63.70836 40714 ft 513 kts 96°
2026-04-30 12:38 23.91558 63.78608 40714 ft 513 kts 96°
2026-04-30 12:38 23.90963 63.86387 40715 ft 513 kts 95°
2026-04-30 12:39 23.90390 63.94157 40714 ft 513 kts 95°
2026-04-30 12:39 23.89810 64.01917 40712 ft 512 kts 95°
2026-04-30 12:40 23.89220 64.09670 40714 ft 512 kts 95°
2026-04-30 12:40 23.88627 64.17391 40714 ft 512 kts 95°
2026-04-30 12:41 23.88126 64.23860 40714 ft 512 kts 95°
2026-04-30 12:41 23.87523 64.31614 40715 ft 512 kts 95°
2026-04-30 12:42 23.86915 64.39380 40716 ft 512 kts 95°
2026-04-30 12:42 23.86205 64.48397 40710 ft 512 kts 95°
2026-04-30 12:43 23.85690 64.54894 40711 ft 512 kts 95°
2026-04-30 12:43 23.85075 64.62599 40708 ft 512 kts 95°
2026-04-30 12:44 23.84452 64.70356 40711 ft 512 kts 95°
2026-04-30 12:44 23.83826 64.78113 40711 ft 512 kts 95°
2026-04-30 12:45 23.83425 64.85883 40709 ft 512 kts 91°
2026-04-30 12:45 23.83424 64.93676 40717 ft 512 kts 89°
2026-04-30 12:46 23.83495 65.01429 40726 ft 513 kts 89°
2026-04-30 12:46 23.83558 65.09186 40707 ft 513 kts 89°
2026-04-30 12:47 23.83603 65.17005 40708 ft 513 kts 90°
2026-04-30 12:47 23.83638 65.24761 40710 ft 513 kts 90°
2026-04-30 12:48 23.83669 65.32552 40708 ft 513 kts 90°
2026-04-30 12:48 23.83696 65.40359 40713 ft 513 kts 90°
2026-04-30 12:49 23.83720 65.48131 40716 ft 513 kts 90°
2026-04-30 12:49 23.83739 65.55928 40728 ft 513 kts 90°
2026-04-30 12:50 23.83756 65.63678 40727 ft 513 kts 90°
2026-04-30 12:50 23.83768 65.71477 40723 ft 513 kts 90°
2026-04-30 12:51 23.83777 65.79272 40715 ft 513 kts 90°
2026-04-30 12:51 23.83781 65.87036 40706 ft 513 kts 90°
2026-04-30 12:52 23.83781 65.94844 40724 ft 513 kts 90°
2026-04-30 12:52 23.83777 66.02655 40720 ft 513 kts 90°
2026-04-30 12:53 23.83770 66.10445 40723 ft 512 kts 90°
2026-04-30 12:53 23.83759 66.18184 40726 ft 513 kts 90°
2026-04-30 12:54 23.83743 66.25975 40721 ft 513 kts 90°
2026-04-30 12:54 23.83724 66.33772 40707 ft 513 kts 90°
2026-04-30 12:55 23.83701 66.41568 40710 ft 513 kts 90°
2026-04-30 12:55 23.83674 66.49333 40723 ft 513 kts 90°
2026-04-30 12:56 23.83643 66.57137 40716 ft 513 kts 90°
2026-04-30 12:56 23.83608 66.64905 40723 ft 513 kts 90°
2026-04-30 12:57 23.83570 66.72704 40710 ft 513 kts 90°
2026-04-30 12:57 23.83527 66.80518 40723 ft 513 kts 90°
2026-04-30 12:58 23.83480 66.88316 40722 ft 513 kts 90°
2026-04-30 12:58 23.83429 66.96127 40723 ft 513 kts 90°
2026-04-30 12:59 23.84031 67.03844 40725 ft 512 kts 80°
2026-04-30 12:59 23.85242 67.11516 40711 ft 512 kts 78°
2026-04-30 13:00 23.86557 67.19184 40714 ft 513 kts 78°
2026-04-30 13:00 23.87854 67.26849 40703 ft 513 kts 78°
2026-04-30 13:01 23.89118 67.34473 40707 ft 513 kts 78°
2026-04-30 13:01 23.90376 67.42143 40714 ft 513 kts 78°
2026-04-30 13:02 23.91633 67.49839 40716 ft 513 kts 78°
2026-04-30 13:02 23.92886 67.57526 40720 ft 514 kts 78°
2026-04-30 13:03 23.94137 67.65224 40725 ft 514 kts 78°
2026-04-30 13:03 23.95384 67.72916 40702 ft 514 kts 78°
2026-04-30 13:04 23.96627 67.80616 40720 ft 514 kts 78°
2026-04-30 13:04 23.97857 67.88260 40710 ft 514 kts 78°
2026-04-30 13:05 23.99094 67.95971 40699 ft 514 kts 78°
2026-04-30 13:06 24.00943 68.07537 40721 ft 514 kts 78°
2026-04-30 13:06 24.02171 68.15254 40712 ft 515 kts 78°
2026-04-30 13:07 24.03387 68.22924 40697 ft 515 kts 78°
2026-04-30 13:07 24.04608 68.30647 40700 ft 515 kts 78°
2026-04-30 13:08 24.05823 68.38366 40699 ft 515 kts 78°
2026-04-30 13:08 24.07039 68.46111 40700 ft 515 kts 78°
2026-04-30 13:09 24.08243 68.53809 40696 ft 515 kts 78°
2026-04-30 13:09 24.09449 68.61543 40700 ft 516 kts 78°
2026-04-30 13:10 24.10654 68.69294 40701 ft 516 kts 78°
2026-04-30 13:10 24.11159 68.77121 40697 ft 518 kts 94°
2026-04-30 13:11 24.09686 68.84793 40700 ft 519 kts 105°
2026-04-30 13:11 24.07699 68.92401 40701 ft 519 kts 105°
2026-04-30 13:12 24.05713 69.00004 40700 ft 519 kts 105°
2026-04-30 13:12 24.03728 69.07610 40696 ft 519 kts 105°
2026-04-30 13:13 24.00750 69.19007 40695 ft 519 kts 105°
2026-04-30 13:14 23.97765 69.30396 40709 ft 519 kts 105°
2026-04-30 13:14 23.94783 69.41737 40692 ft 519 kts 105°
2026-04-30 13:15 23.91771 69.53154 40705 ft 519 kts 105°
2026-04-30 13:16 23.89782 69.60673 40695 ft 519 kts 105°
2026-04-30 13:16 23.87774 69.68249 40695 ft 519 kts 105°
2026-04-30 13:17 23.84754 69.79612 40696 ft 519 kts 105°
2026-04-30 13:18 23.81723 69.90978 40689 ft 518 kts 105°
2026-04-30 13:18 23.78701 70.02275 40707 ft 518 kts 105°
2026-04-30 13:19 23.76675 70.09831 40703 ft 518 kts 105°
2026-04-30 13:19 23.74642 70.17393 40698 ft 518 kts 105°
2026-04-30 13:20 23.72605 70.24957 40702 ft 518 kts 105°
2026-04-30 13:20 23.70568 70.32502 40702 ft 518 kts 105°
2026-04-30 13:21 23.68527 70.40049 40693 ft 518 kts 105°
2026-04-30 13:22 23.65490 70.51249 39441 ft 515 kts 105°
2026-04-30 13:22 23.64469 70.55007 38744 ft 518 kts 105°
2026-04-30 13:22 23.62386 70.62656 37803 ft 530 kts 106°
2026-04-30 13:23 23.61334 70.66512 37212 ft 529 kts 106°
2026-04-30 13:23 23.59242 70.74168 35797 ft 531 kts 105°
2026-04-30 13:24 23.57112 70.81948 34245 ft 537 kts 105°
2026-04-30 13:24 23.54956 70.89798 32600 ft 542 kts 105°
2026-04-30 13:25 23.52806 70.97597 31053 ft 543 kts 105°
2026-04-30 13:25 23.50401 71.05417 29657 ft 542 kts 110°
2026-04-30 13:26 23.46260 71.16818 27494 ft 535 kts 109°
2026-04-30 13:26 23.43620 71.24232 25942 ft 516 kts 108°
2026-04-30 13:27 23.41033 71.31548 24562 ft 514 kts 108°
2026-04-30 13:28 23.37648 71.41117 23027 ft 503 kts 107°
2026-04-30 13:28 23.35153 71.48184 21615 ft 491 kts 108°
2026-04-30 13:28 23.33957 71.51558 20921 ft 466 kts 108°
2026-04-30 13:29 23.31717 71.57883 19676 ft 446 kts 108°
2026-04-30 13:29 23.29479 71.64205 18399 ft 449 kts 109°
2026-04-30 13:30 23.26195 71.73429 15120 ft 421 kts 110°
2026-04-30 13:31 23.24144 71.79178 12995 ft 396 kts 110°
2026-04-30 13:31 23.21249 71.87294 10116 ft 387 kts 112°
2026-04-30 13:32 23.19444 71.92346 9687 ft 324 kts 112°
2026-04-30 13:32 23.17907 71.96661 8815 ft 298 kts 112°
2026-04-30 13:33 23.16407 72.00843 8043 ft 295 kts 112°
2026-04-30 13:33 23.14933 72.04954 7363 ft 290 kts 112°
2026-04-30 13:34 23.14413 72.07057 7008 ft 290 kts 95°
2026-04-30 13:34 23.15155 72.13501 5727 ft 288 kts 80°
2026-04-30 13:35 23.15467 72.15500 5698 ft 287 kts 80°
2026-04-30 13:35 23.16125 72.19750 5684 ft 286 kts 80°
2026-04-30 13:36 23.16787 72.23986 4942 ft 284 kts 80°
2026-04-30 13:36 23.17113 72.26113 4583 ft 283 kts 80°
2026-04-30 13:36 23.17747 72.30326 4033 ft 282 kts 80°
2026-04-30 13:37 23.18063 72.32425 4000 ft 279 kts 80°
2026-04-30 13:37 23.18660 72.36418 3996 ft 260 kts 80°
2026-04-30 13:38 23.19247 72.40270 3999 ft 259 kts 80°
2026-04-30 13:38 23.19539 72.42207 3998 ft 259 kts 80°
2026-04-30 13:38 23.20130 72.46063 3995 ft 258 kts 80°
2026-04-30 13:39 23.20693 72.49788 3993 ft 238 kts 80°
2026-04-30 13:39 23.21210 72.53307 3998 ft 235 kts 80°
2026-04-30 13:40 23.21448 72.55053 3915 ft 232 kts 84°
2026-04-30 13:40 23.21517 72.56782 3617 ft 223 kts 89°
2026-04-30 13:40 23.21523 72.58412 3303 ft 214 kts 90°
2026-04-30 13:40 23.21530 72.60006 2904 ft 209 kts 90°
2026-04-30 13:41 23.21544 72.61585 2427 ft 211 kts 90°
2026-04-30 13:41 23.21568 72.63179 2177 ft 208 kts 90°
2026-04-30 13:41 23.21606 72.64707 2038 ft 196 kts 90°
2026-04-30 13:41 23.21652 72.66171 1993 ft 191 kts 91°
2026-04-30 13:42 23.21718 72.67586 1992 ft 184 kts 90°
2026-04-30 13:42 23.21778 72.68944 1996 ft 181 kts 90°
2026-04-30 13:42 23.21889 72.71573 1997 ft 169 kts 90°
2026-04-30 13:43 23.21870 72.72858 1984 ft 170 kts 106°
2026-04-30 13:43 23.21252 72.73881 1992 ft 161 kts 149°
2026-04-30 13:43 23.20243 72.74219 2003 ft 147 kts 181°
2026-04-30 13:43 23.19237 72.74182 2008 ft 143 kts 189°
2026-04-30 13:44 23.18256 72.74074 1997 ft 139 kts 190°
2026-04-30 13:44 23.17385 72.73727 1994 ft 133 kts 214°
2026-04-30 13:44 23.16693 72.73072 1995 ft 134 kts 225°
2026-04-30 13:44 23.16032 72.72361 1992 ft 133 kts 224°
2026-04-30 13:45 23.14707 72.70946 1719 ft 134 kts 223°
2026-04-30 13:45 23.14043 72.70234 1575 ft 135 kts 223°
2026-04-30 13:45 23.13373 72.69518 1397 ft 135 kts 221°
2026-04-30 13:46 23.12708 72.68808 1234 ft 134 kts 222°
2026-04-30 13:46 23.12046 72.68091 1057 ft 135 kts 219°
2026-04-30 13:46 23.11385 72.67356 907 ft 137 kts 218°
2026-04-30 13:46 23.10706 72.66626 730 ft 136 kts 221°
2026-04-30 13:47 23.10035 72.65918 539 ft 134 kts 222°
2026-04-30 13:47 23.09369 72.65197 372 ft 136 kts 220°
2026-04-30 13:47 23.08690 72.64478 220 ft 135 kts 220°
2026-04-30 13:47 23.08090 72.63840 211 ft 97 kts 225°
2026-04-30 13:48 23.07751 72.63476 214 ft 58 kts 225°
2026-04-30 13:48 23.07532 72.63238 213 ft 24 kts 230°
2026-04-30 13:48 23.07463 72.63100 206 ft 13 kts 250°
2026-04-30 13:48 23.07437 72.63003 205 ft 13 kts 252°
2026-04-30 13:49 23.07426 72.62966 211 ft 0 kts 252°
2026-04-30 13:49 23.07415 72.62929 201 ft 9 kts 252°
2026-04-30 13:50 23.07437 72.62893 206 ft 15 kts 317°
2026-04-30 13:50 23.07511 72.62813 204 ft 7 kts 314°
2026-04-30 13:50 23.07520 72.62739 207 ft 8 kts 231°
2026-04-30 13:51 23.07477 72.62684 196 ft 10 kts 229°
2026-04-30 13:51 23.07422 72.62621 207 ft 13 kts 225°
2026-04-30 13:51 23.07362 72.62556 207 ft 10 kts 226°
2026-04-30 13:51 23.07362 72.62521 206 ft 9 kts 285°
2026-04-30 13:52 23.07386 72.62490 203 ft 0 kts 312°
2026-04-30 13:52 23.07387 72.62488 207 ft 0 kts 313°
2026-04-30 13:52 23.07387 72.62489 207 ft 0 kts 313°